sat.trackr.live / text

‹ back to catalog

STARLINK-34308

NORAD 64258 · 2025-120C

PAYLOAD ACTIVE UNKNOWN

§ Identity

Operator
Country
US
Launch date
2025-06-04
Launch site
AFWTR
Launch vehicle
Mass (kg)
RCS (m²)

Purposes: comms

External: N2YO · Heavens-Above · Gunter

§ Orbital elements

Epoch: 2026-09-20T08:45:25.391808Z

Period
93.85 min
Inclination
53.1587°
Eccentricity
0.0001032
Mean motion
15.34398426 rev/d
Perigee alt
462.0 km
Apogee alt
463.4 km
Semi-major
6,840.8 km
B*
4.2950e-4
RAAN
286.6393°
Arg perigee
96.5058°
Mean anomaly
263.6063°
Rev number
7,375

§ Raw data

STARLINK-343081 64258U 25120C   26263.36487722  .00014162  00000+0  42950-3 0  99992 64258  53.1587 286.6393 0001032  96.5058 263.6063 15.34398426 73755

JSON: /api/v1/satellites/64258 · /tle

For live sub-satellite position, see the globe view (requires WebGL).

§ Visibility from observer

Set your observer location to see the next 7 days of passes ≥ 10°. The values pass through the URL so the page stays shareable.

No JS? Fill the form by hand. The geolocation button needs JavaScript.